Wisconsin Rapids, WI

1:48 PM CDT on May 29, 2017 (GMT -0500)
Alexander Field South Wood County

Weather History for KISW - January, 2013

Change the Weather History Date:

Friday, January 25, 2013

  Actual Average Record
Temperature  
Mean Temperature 14 °F -  
Max Temperature 19 °F 25 °F 57 °F (1981)
Min Temperature 8 °F 4 °F -22 °F (1991)
Degree Days  
Heating Degree Days 52    
Moisture  
Dew Point 10 °F    
Average Humidity 78    
Maximum Humidity 86    
Minimum Humidity 62    
Precipitation  
Precipitation 0.04 in - - ()
Sea Level Pressure  
Sea Level Pressure 30.06 in    
Wind  
Wind Speed 7 mph (SW)    
Max Wind Speed 14 mph    
Max Gust Speed 20 mph    
Visibility 5 miles    
Events Snow    
Averages and records for this station are not official NWS values.
T = Trace of Precipitation, MM = Missing Value Source: NWS Daily Summary

Daily Weather History Graph

Daily Weather History Graph

Search for Another Location

Airport or City:

Trip Planner

Search our weather history database for the weather conditions in past years. The results will help you decide how hot, cold, wet, or windy it might be!

Date:

Astronomy

Jan. 25, 2013 Rise Set
Actual Time 7:24 AM CST 4:59 PM CST
Civil Twilight 6:53 AM CST 5:31 PM CST
Nautical Twilight 6:17 AM CST 6:06 PM CST
Astronomical Twilight 5:43 AM CST 6:40 PM CST
Moon 3:56 PM CST (1/25) 6:04 AM CST (1/25)
Length of Visible Light 10h 38m
Length of Day
9h 35m
Waxing Gibbous, 98% of the Moon is Illuminated
Jan 25
Waxing Gibbous
Jan 26
Full
Feb 3
Last Quarter
Feb 10
New
Feb 17
First Quarter

Hourly Weather History & Observations

Time (CST) Temp. Windchill Dew Point Humidity Pressure Visibility Wind Dir Wind Speed Gust Speed Precip Events Conditions
12:54 AM 10.9 °F 1.4 °F 3.9 °F 73% 30.34 in 2.5 mi SSE 5.8 mph - 0.00 in Snow Light Snow
12:56 AM 10.4 °F 2.2 °F 3.2 °F 73% 30.26 in 1.8 mi SE 4.6 mph - 0.00 in Snow Light Snow
1:36 AM 10.4 °F 0.8 °F 6.8 °F 85% 30.21 in 2.5 mi Variable 5.8 mph - 0.01 in Snow Light Snow
1:54 AM 10.9 °F 1.4 °F 6.1 °F 81% 30.27 in 2.0 mi SE 5.8 mph - 0.01 in Snow Light Snow
2:15 AM 10.4 °F 0.8 °F 6.8 °F 85% 30.19 in 1.8 mi SSE 5.8 mph - 0.00 in Snow Light Snow
2:41 AM 12.2 °F 1.7 °F 6.8 °F 79% 30.16 in 1.0 mi SSE 6.9 mph - 0.01 in Snow Light Snow
2:54 AM 12.0 °F 1.5 °F 8.1 °F 84% 30.22 in 1.0 mi SSE 6.9 mph - 0.01 in Snow Light Snow
3:13 AM 12.2 °F 1.7 °F 8.6 °F 85% 30.14 in 1.5 mi SSE 6.9 mph - 0.01 in Snow Light Snow
3:26 AM 12.2 °F 4.3 °F 8.6 °F 85% 30.13 in 2.0 mi South 4.6 mph - 0.01 in Snow Light Snow
3:51 AM 12.2 °F 1.7 °F 8.6 °F 85% 30.12 in 1.5 mi South 6.9 mph - 0.01 in Snow Light Snow
3:54 AM 12.9 °F 2.6 °F 8.1 °F 81% 30.18 in 1.5 mi South 6.9 mph - 0.01 in Snow Light Snow
4:19 AM 12.2 °F 2.9 °F 8.6 °F 85% 30.09 in 2.5 mi South 5.8 mph - 0.01 in Snow Light Snow
4:40 AM 12.2 °F 2.9 °F 8.6 °F 85% 30.08 in 2.0 mi South 5.8 mph - 0.01 in Snow Light Snow
4:54 AM 12.9 °F 3.8 °F 9.0 °F 84% 30.14 in 3.0 mi South 5.8 mph - 0.01 in Snow Light Snow
5:54 AM 14.0 °F 5.1 °F 9.0 °F 80% 30.11 in 10.0 mi South 5.8 mph - 0.00 in   Overcast
6:40 AM 14.0 °F 5.1 °F 10.4 °F 86% 30.02 in 9.0 mi South 5.8 mph - N/A   Overcast
6:54 AM 14.0 °F 5.1 °F 10.0 °F 84% 30.08 in 5.0 mi South 5.8 mph - 0.00 in Snow Light Snow
7:22 AM 14.0 °F 5.1 °F 10.4 °F 86% 30.00 in 3.0 mi South 5.8 mph - 0.00 in Snow Light Snow
7:54 AM 15.1 °F 6.4 °F 10.0 °F 80% 30.06 in 5.0 mi South 5.8 mph - 0.00 in   Haze
8:18 AM 15.8 °F 7.2 °F 10.4 °F 79% 29.98 in 2.5 mi SSW 5.8 mph - 0.00 in Snow Light Snow
8:25 AM 15.8 °F 7.2 °F 10.4 °F 79% 29.98 in 2.5 mi South 5.8 mph - 0.00 in Snow Light Snow
8:32 AM 15.8 °F 7.2 °F 10.4 °F 79% 29.98 in 3.0 mi SSW 5.8 mph - 0.00 in Snow Light Snow
8:54 AM 16.0 °F 5.3 °F 10.9 °F 81% 30.04 in 2.5 mi SSW 8.1 mph - 0.00 in Snow Light Snow
9:18 AM 15.8 °F 4.2 °F 12.2 °F 86% 29.96 in 5.0 mi SSW 9.2 mph - 0.00 in Snow Light Snow
9:54 AM 17.1 °F 7.6 °F 12.0 °F 81% 30.01 in 6.0 mi SSW 6.9 mph - 0.00 in   Haze
10:13 AM 17.6 °F 8.2 °F 12.2 °F 79% 29.94 in 4.0 mi SSW 6.9 mph - 0.00 in Snow Light Snow
10:49 AM 17.6 °F 6.4 °F 12.2 °F 79% 29.93 in 2.0 mi SW 9.2 mph - 0.00 in Snow Light Snow
10:54 AM 18.0 °F 7.7 °F 12.0 °F 78% 29.99 in 2.0 mi SSW 8.1 mph - 0.00 in Snow Light Snow
11:08 AM 17.6 °F 8.2 °F 12.2 °F 79% 29.92 in 2.5 mi SW 6.9 mph - 0.00 in Snow Light Snow
11:15 AM 17.6 °F 8.2 °F 12.2 °F 79% 29.92 in 3.0 mi SW 6.9 mph - 0.00 in Snow Light Snow
11:54 AM 19.0 °F 8.2 °F 10.9 °F 71% 29.97 in 4.0 mi WSW 9.2 mph - 0.00 in Snow Light Snow
12:02 PM 19.4 °F 7.9 °F 10.4 °F 68% 29.90 in 5.0 mi SW 10.4 mph - 0.00 in Snow Light Snow
12:54 PM 19.0 °F 6.1 °F 10.9 °F 71% 29.96 in 6.0 mi West 12.7 mph 17.3 mph 0.00 in Snow Light Snow
1:54 PM 19.9 °F 8.6 °F 12.0 °F 71% 29.97 in 7.0 mi West 10.4 mph 19.6 mph 0.00 in   Overcast
2:16 PM 19.4 °F 7.9 °F 10.4 °F 68% 29.92 in 6.0 mi WNW 10.4 mph - 0.00 in Snow Light Snow
2:27 PM 19.4 °F 7.9 °F 10.4 °F 68% 29.92 in 10.0 mi West 10.4 mph - 0.00 in   Overcast
2:45 PM 19.4 °F 8.6 °F 12.2 °F 74% 29.93 in 1.8 mi WNW 9.2 mph - 0.00 in Snow Light Snow
2:54 PM 19.0 °F 8.2 °F 12.9 °F 77% 30.00 in 1.5 mi WNW 9.2 mph - 0.00 in Snow Light Snow
2:57 PM 19.4 °F 6.6 °F 12.2 °F 74% 29.94 in 2.5 mi WNW 12.7 mph - 0.00 in Snow Light Snow
2:59 PM 19.4 °F 7.2 °F 12.2 °F 74% 29.94 in 4.0 mi WNW 11.5 mph - 0.00 in Snow Light Snow
3:06 PM 19.4 °F 7.9 °F 12.2 °F 74% 29.94 in 7.0 mi NW 10.4 mph - 0.00 in   Overcast
3:10 PM 19.4 °F 7.2 °F 12.2 °F 74% 29.94 in 2.5 mi WNW 11.5 mph - 0.00 in Snow Light Snow
3:21 PM 19.4 °F 10.4 °F 12.2 °F 74% 29.95 in 1.5 mi NW 6.9 mph - 0.00 in Snow Light Snow
3:30 PM 19.4 °F 9.5 °F 12.2 °F 74% 29.96 in 3.0 mi NW 8.1 mph - 0.00 in Snow Light Snow
3:54 PM 19.0 °F 6.8 °F 10.0 °F 68% 30.03 in 10.0 mi WNW 11.5 mph - 0.00 in   Overcast
4:54 PM 19.0 °F 5.6 °F 8.1 °F 62% 30.06 in 10.0 mi NW 13.8 mph - 0.00 in   Overcast
5:54 PM 18.0 °F 6.9 °F 9.0 °F 68% 30.09 in 10.0 mi NW 9.2 mph - N/A   Overcast
6:54 PM 17.1 °F 4.3 °F 8.1 °F 68% 30.12 in 10.0 mi WNW 11.5 mph - 0.00 in   Overcast
7:54 PM 16.0 °F 4.4 °F 8.1 °F 71% 30.14 in 10.0 mi NW 9.2 mph - N/A   Overcast
8:54 PM 12.9 °F 3.8 °F 6.1 °F 74% 30.17 in 10.0 mi WNW 5.8 mph - N/A   Partly Cloudy
9:54 PM 10.9 °F 1.4 °F 5.0 °F 77% 30.19 in 10.0 mi WNW 5.8 mph - N/A   Clear
10:54 PM 8.1 °F -2.0 °F 3.9 °F 83% 30.23 in 10.0 mi West 5.8 mph - N/A   Clear
11:54 PM 8.1 °F -2.0 °F 3.9 °F 83% 30.26 in 10.0 mi West 5.8 mph - N/A   Clear